Location: Neuvy Saint Sepulchre
(46.5953°N, 1.8122°E)
Time: 12:51:32
(UTC+02:00)

ISS - Pass Details

Date: 04 October 2022
Orbit: 414 x 417 km, 51.6° (Epoch: 01 October)

Event Time Altitude Azimuth Distance (km) Brightness Sun altitude
Rises 21:15:27 0° 284° (WNW) 2,358 1.7 -19.3°
Reaches altitude 10° 21:18:31 10° 253° (WSW) 1,490 -0.1 -19.8°
Maximum altitude 21:19:58 12° 227° (SW) 1,351 -0.8 -20.1°
Drops below altitude 10° 21:21:25 10° 201° (SSW) 1,485 -0.9 -20.3°
Enters shadow 21:21:50 - 195° (SSW) 1,566 -0.9 -20.4°
